CFG2002 WMKK-WMKP

Flight info

Callsign CFG2002
Flight time 0h 32m
Altitude 28000
Route ATIMU1D ATIMU DCT TEPUS GORVU1F
Aircraft A20N/M-SDE2E3FGHIRWXY/LB1

Departure

Time 2026-04-23 20:47
Airport Kuala Lumpur International Airport (WMKK)

Arrival

Time 2026-04-23 21:19
Airport Penang International Airport (WMKP)
Time Latitude Longitude Altitude Speed Heading
2026-04-23 20:24 2.75502 101.70793 67 ft 0 kts 146°
2026-04-23 20:39 2.75516 101.70784 57 ft 4 kts 143°
2026-04-23 20:40 2.75534 101.70766 60 ft 4 kts 103°
2026-04-23 20:40 2.75529 101.70747 59 ft 4 kts 56°
2026-04-23 20:40 2.75526 101.70743 67 ft 0 kts 56°
2026-04-23 20:42 2.75544 101.70770 67 ft 10 kts 56°
2026-04-23 20:42 2.75594 101.70845 67 ft 15 kts 56°
2026-04-23 20:43 2.75659 101.70944 59 ft 19 kts 56°
2026-04-23 20:43 2.75748 101.71046 59 ft 21 kts 22°
2026-04-23 20:43 2.75839 101.71144 64 ft 21 kts 56°
2026-04-23 20:43 2.75893 101.71255 69 ft 13 kts 113°
2026-04-23 20:44 2.75816 101.71319 61 ft 16 kts 145°
2026-04-23 20:44 2.75714 101.71387 69 ft 19 kts 146°
2026-04-23 20:44 2.75597 101.71467 67 ft 21 kts 146°
2026-04-23 20:44 2.75469 101.71554 72 ft 23 kts 146°
2026-04-23 20:45 2.75328 101.71649 72 ft 25 kts 147°
2026-04-23 20:45 2.75176 101.71749 74 ft 27 kts 147°
2026-04-23 20:45 2.75036 101.71843 71 ft 12 kts 146°
2026-04-23 20:45 2.74989 101.71910 75 ft 13 kts 84°
2026-04-23 20:46 2.75044 101.71997 76 ft 16 kts 52°
2026-04-23 20:46 2.75156 101.71995 74 ft 28 kts 324°
2026-04-23 20:46 2.75519 101.71754 70 ft 98 kts 325°
2026-04-23 20:46 2.76247 101.71261 69 ft 152 kts 326°
2026-04-23 20:47 2.77147 101.70651 566 ft 154 kts 323°
2026-04-23 20:47 2.78070 101.69971 1060 ft 173 kts 326°
2026-04-23 20:47 2.79104 101.69257 1600 ft 189 kts 336°
2026-04-23 20:47 2.80313 101.68632 2113 ft 197 kts 337°
2026-04-23 20:48 2.81619 101.68073 2675 ft 207 kts 340°
2026-04-23 20:48 2.83062 101.67506 3314 ft 238 kts 340°
2026-04-23 20:48 2.84702 101.66912 3828 ft 261 kts 343°
2026-04-23 20:48 2.86498 101.66373 4615 ft 274 kts 344°
2026-04-23 20:49 2.88330 101.65810 5564 ft 277 kts 342°
2026-04-23 20:49 2.90177 101.65211 6524 ft 281 kts 341°
2026-04-23 20:49 2.92041 101.64570 7434 ft 286 kts 341°
2026-04-23 20:49 2.93944 101.63916 8255 ft 291 kts 341°
2026-04-23 20:50 2.95793 101.63042 9038 ft 298 kts 325°
2026-04-23 20:50 2.97292 101.61644 9897 ft 299 kts 307°
2026-04-23 20:50 2.98549 101.59943 10479 ft 314 kts 305°
2026-04-23 20:50 2.99885 101.58106 10781 ft 337 kts 305°
2026-04-23 20:51 3.01305 101.56151 11184 ft 356 kts 305°
2026-04-23 20:51 3.02780 101.54131 12025 ft 361 kts 306°
2026-04-23 20:51 3.04272 101.52096 12783 ft 365 kts 306°
2026-04-23 20:51 3.05788 101.50031 13497 ft 371 kts 306°
2026-04-23 20:52 3.07323 101.47937 14139 ft 375 kts 306°
2026-04-23 20:52 3.08879 101.45813 14780 ft 379 kts 306°
2026-04-23 20:52 3.10448 101.43673 15422 ft 383 kts 306°
2026-04-23 20:52 3.12037 101.41506 16042 ft 388 kts 306°
2026-04-23 20:53 3.13636 101.39325 16641 ft 391 kts 306°
2026-04-23 20:53 3.15282 101.37128 17209 ft 396 kts 309°
2026-04-23 20:53 3.17172 101.35116 17828 ft 400 kts 317°
2026-04-23 20:53 3.19347 101.33353 18365 ft 404 kts 324°
2026-04-23 20:54 3.21598 101.31712 18897 ft 406 kts 324°
2026-04-23 20:54 3.23892 101.30029 19435 ft 409 kts 324°
2026-04-23 20:54 3.26196 101.28330 19919 ft 413 kts 324°
2026-04-23 20:54 3.28526 101.26614 20393 ft 417 kts 324°
2026-04-23 20:55 3.30866 101.24892 20903 ft 418 kts 324°
2026-04-23 20:55 3.33229 101.23150 21409 ft 422 kts 324°
2026-04-23 20:55 3.35597 101.21403 21929 ft 425 kts 324°
2026-04-23 20:55 3.37992 101.19636 22430 ft 428 kts 324°
2026-04-23 20:56 3.40399 101.17862 22936 ft 432 kts 324°
2026-04-23 20:56 3.42798 101.16095 23434 ft 434 kts 323°
2026-04-23 20:56 3.45238 101.14291 23844 ft 437 kts 323°
2026-04-23 20:56 3.47692 101.12481 24273 ft 439 kts 323°
2026-04-23 20:57 3.50168 101.10655 24690 ft 442 kts 323°
2026-04-23 20:57 3.52645 101.08827 25078 ft 443 kts 323°
2026-04-23 20:57 3.55136 101.06988 25393 ft 446 kts 324°
2026-04-23 20:57 3.57638 101.05147 25798 ft 448 kts 323°
2026-04-23 20:58 3.60160 101.03287 26188 ft 450 kts 323°
2026-04-23 20:58 3.62692 101.01417 26615 ft 453 kts 323°
2026-04-23 20:58 3.65236 100.99544 26987 ft 455 kts 324°
2026-04-23 20:58 3.67924 100.97862 27330 ft 457 kts 332°
2026-04-23 20:59 3.70803 100.96487 27615 ft 460 kts 336°
2026-04-23 20:59 3.73731 100.95195 27718 ft 459 kts 336°
2026-04-23 20:59 3.76667 100.93894 27799 ft 461 kts 336°
2026-04-23 20:59 3.79599 100.92590 27799 ft 461 kts 336°
2026-04-23 21:00 3.82490 100.91302 27800 ft 461 kts 336°
2026-04-23 21:00 3.85420 100.89996 27801 ft 461 kts 336°
2026-04-23 21:00 3.88354 100.88691 27800 ft 461 kts 336°
2026-04-23 21:00 3.91284 100.87386 27801 ft 461 kts 336°
2026-04-23 21:01 3.94222 100.86078 27797 ft 461 kts 336°
2026-04-23 21:01 3.97153 100.84774 27797 ft 461 kts 336°
2026-04-23 21:01 4.00083 100.83471 27799 ft 462 kts 336°
2026-04-23 21:01 4.03020 100.82165 27796 ft 460 kts 336°
2026-04-23 21:02 4.04967 100.81297 27796 ft 461 kts 336°
2026-04-23 21:02 4.08849 100.79566 27796 ft 461 kts 336°
2026-04-23 21:02 4.11776 100.78259 27795 ft 461 kts 336°
2026-04-23 21:02 4.14708 100.76954 27795 ft 461 kts 336°
2026-04-23 21:03 4.17641 100.75651 27800 ft 461 kts 336°
2026-04-23 21:03 4.20570 100.74362 27698 ft 458 kts 336°
2026-04-23 21:03 4.23499 100.73089 27304 ft 458 kts 337°
2026-04-23 21:03 4.26425 100.71822 26644 ft 458 kts 336°
2026-04-23 21:04 4.29355 100.70552 25810 ft 459 kts 336°
2026-04-23 21:04 4.31293 100.69707 25257 ft 460 kts 336°
2026-04-23 21:04 4.34241 100.68422 24424 ft 461 kts 336°
2026-04-23 21:04 4.37175 100.67145 23638 ft 461 kts 337°
2026-04-23 21:05 4.40122 100.65865 22741 ft 460 kts 337°
2026-04-23 21:05 4.43047 100.64590 21817 ft 459 kts 337°
2026-04-23 21:05 4.45970 100.63311 20938 ft 456 kts 337°
2026-04-23 21:05 4.48883 100.62042 20069 ft 456 kts 337°
2026-04-23 21:06 4.51790 100.60772 19247 ft 453 kts 337°
2026-04-23 21:06 4.54672 100.59515 18452 ft 450 kts 337°
2026-04-23 21:06 4.57540 100.58262 17592 ft 449 kts 337°
2026-04-23 21:06 4.60391 100.57017 16701 ft 445 kts 337°
2026-04-23 21:07 4.63187 100.55792 15839 ft 431 kts 337°
2026-04-23 21:07 4.65900 100.54608 15040 ft 420 kts 337°
2026-04-23 21:07 4.68536 100.53461 14285 ft 407 kts 337°
2026-04-23 21:07 4.71099 100.52343 13562 ft 396 kts 337°
2026-04-23 21:08 4.73581 100.51260 12976 ft 381 kts 337°
2026-04-23 21:08 4.75949 100.50227 12555 ft 363 kts 337°
2026-04-23 21:08 4.78186 100.49251 12169 ft 347 kts 337°
2026-04-23 21:08 4.80359 100.48295 11800 ft 333 kts 335°
2026-04-23 21:09 4.82289 100.47097 11448 ft 318 kts 321°
2026-04-23 21:09 4.83832 100.45564 11116 ft 307 kts 308°
2026-04-23 21:09 4.85096 100.43881 10803 ft 300 kts 307°
2026-04-23 21:09 4.86364 100.42195 10460 ft 305 kts 307°
2026-04-23 21:10 4.87649 100.40506 10101 ft 304 kts 307°
2026-04-23 21:10 4.88939 100.38819 9729 ft 304 kts 307°
2026-04-23 21:10 4.90221 100.37139 9315 ft 301 kts 307°
2026-04-23 21:10 4.91473 100.35497 8786 ft 296 kts 308°
2026-04-23 21:11 4.92713 100.33872 8272 ft 291 kts 307°
2026-04-23 21:11 4.93930 100.32274 7779 ft 286 kts 307°
2026-04-23 21:11 4.95127 100.30697 7292 ft 283 kts 307°
2026-04-23 21:11 4.96312 100.29136 6836 ft 280 kts 307°
2026-04-23 21:12 4.97494 100.27588 6439 ft 278 kts 307°
2026-04-23 21:12 4.98677 100.26037 6040 ft 281 kts 307°
2026-04-23 21:12 4.99854 100.24496 5616 ft 276 kts 307°
2026-04-23 21:12 5.01013 100.22966 5196 ft 275 kts 307°
2026-04-23 21:13 5.02176 100.21434 4804 ft 279 kts 307°
2026-04-23 21:13 5.03380 100.19916 4388 ft 277 kts 313°
2026-04-23 21:13 5.04829 100.18698 3980 ft 275 kts 327°
2026-04-23 21:13 5.06490 100.17801 3566 ft 270 kts 333°
2026-04-23 21:14 5.08143 100.16948 3162 ft 264 kts 332°
2026-04-23 21:14 5.09736 100.16117 2766 ft 254 kts 332°
2026-04-23 21:14 5.11231 100.15308 2388 ft 241 kts 330°
2026-04-23 21:14 5.12713 100.14547 2163 ft 236 kts 336°
2026-04-23 21:15 5.14278 100.14341 2061 ft 226 kts 12°
2026-04-23 21:15 5.15633 100.15077 1994 ft 217 kts 40°
2026-04-23 21:15 5.16784 100.16094 1996 ft 225 kts 42°
2026-04-23 21:15 5.17990 100.17160 1996 ft 226 kts 43°
2026-04-23 21:16 5.19109 100.18148 1998 ft 208 kts 39°
2026-04-23 21:16 5.20175 100.19086 1985 ft 192 kts 44°
2026-04-23 21:16 5.21164 100.19956 1962 ft 185 kts 41°
2026-04-23 21:16 5.22155 100.20874 1659 ft 195 kts 40°
2026-04-23 21:17 5.23140 100.21735 1417 ft 184 kts 41°
2026-04-23 21:17 5.24086 100.22612 1191 ft 183 kts 39°
2026-04-23 21:17 5.25036 100.23476 964 ft 185 kts 40°
2026-04-23 21:17 5.25985 100.24324 709 ft 175 kts 42°
2026-04-23 21:18 5.26843 100.25092 495 ft 155 kts 40°
2026-04-23 21:18 5.27566 100.25736 351 ft 133 kts 44°
2026-04-23 21:18 5.28253 100.26353 198 ft 131 kts 40°
2026-04-23 21:18 5.28929 100.26966 29 ft 125 kts 42°
2026-04-23 21:19 5.29481 100.27471 22 ft 82 kts 41°
2026-04-23 21:19 5.29762 100.27726 24 ft 25 kts 41°
2026-04-23 21:19 5.29883 100.27809 25 ft 23 kts 17°
2026-04-23 21:19 5.30057 100.27845 25 ft 14 kts 11°
2026-04-23 21:20 5.30127 100.27842 24 ft 12 kts 321°
2026-04-23 21:20 5.30107 100.27782 22 ft 12 kts 222°
2026-04-23 21:20 5.30035 100.27715 26 ft 16 kts 223°
2026-04-23 21:20 5.29944 100.27631 24 ft 19 kts 223°
2026-04-23 21:21 5.29835 100.27532 24 ft 23 kts 221°
2026-04-23 21:21 5.29711 100.27421 23 ft 25 kts 221°
2026-04-23 21:21 5.29574 100.27297 22 ft 28 kts 224°
2026-04-23 21:21 5.29437 100.27171 23 ft 27 kts 222°
2026-04-23 21:22 5.29301 100.27049 26 ft 24 kts 222°
2026-04-23 21:22 5.29196 100.26952 22 ft 10 kts 232°
2026-04-23 21:22 5.29214 100.26882 23 ft 13 kts 314°
2026-04-23 21:22 5.29236 100.26800 24 ft 14 kts 228°
2026-04-23 21:23 5.29185 100.26749 24 ft 2 kts 253°
2026-04-23 21:23 5.29192 100.26737 24 ft 4 kts 304°
2026-04-23 21:23 5.29222 100.26705 22 ft 7 kts 311°
2026-04-23 21:23 5.29243 100.26682 22 ft 2 kts 311°
2026-04-23 21:24 5.29247 100.26677 22 ft 0 kts 311°